Location: Alto Pass Reservoir
(37.5801°N, 89.3084°W)
Time: 12:08:25
(UTC+00:00)

NEOSSAT - Pass Details

Date: 27 September 2022
Orbit: 767 x 784 km, 98.4° (Epoch: 26 November)

Event Time Altitude Azimuth Distance (km) Brightness Sun altitude
Rises 00:37:03 0° 15° (NNE) 3,278 ? -10.6°
Reaches altitude 10° 00:39:23 10° 17° (NNE) 2,347 ? -11.0°
Maximum altitude 00:44:34 71° 102° (ESE) 828 ? -12.1°
Drops below altitude 10° 00:49:42 10° 187° (S) 2,333 ? -13.1°
Sets 00:52:01 0° 189° (S) 3,257 ? -13.5°
